Wind_Speed
58 61 65 71 75 78 81 84 82 77 70 63 59 60 62 59 54 50 48 42 35 36 36 28 30 29 28 30 22 20 13 4 22 20 20 31 56 62 54 31 32 43 47 52
60 64 67 71 76 81 84 84 78 74 70 59 56 60 61 58 53 48 45 41 37 31 32 30 23 26 30 30 21 17 20 5 23 21 16 25 33 46 63 40 24 40 41 43
61 64 68 73 77 82 85 86 77 72 67 61 59 60 60 56 51 47 41 40 36 31 24 25 26 19 23 27 22 20 20 14 11 23 15 26 24 34 58 62 37 38 42 39
61 65 69 74 78 83 86 84 74 67 68 62 64 65 63 53 47 46 41 35 36 36 34 22 21 20 16 20 22 17 14 13 4 16 18 13 27 26 42 58 60 41 44 45
62 66 70 74 78 84 86 81 75 67 68 69 68 66 60 52 48 47 40 36 33 34 34 34 26 20 17 10 16 17 10 9 9 8 14 16 13 26 37 50 59 55 47 52
63 66 69 74 79 83 88 82 73 68 71 71 68 65 58 51 50 45 42 39 34 30 28 29 29 25 21 17 7 13 6 4 5 4 5 8 18 16 27 34 47 50 48 52
63 66 71 75 80 82 83 80 71 70 70 72 67 62 54 51 49 46 41 39 34 32 31 32 31 28 21 16 13 7 8 4 5 4 1 6 10 16 16 23 35 39 39 44
63 66 72 76 80 77 74 76 70 71 70 71 66 61 54 50 47 44 42 38 35 32 30 25 23 21 24 19 14 10 5 4 5 6 6 6 10 12 16 19 27 43 37 39
62 66 71 74 76 75 72 72 71 73 71 71 67 61 54 47 43 41 38 37 33 32 30 27 27 25 22 17 19 14 2 3 6 10 11 12 12 13 15 17 23 35 37 46
64 67 72 74 75 72 68 69 72 72 70 69 65 58 52 47 44 41 39 34 30 30 29 27 25 23 22 19 16 11 13 12 10 12 13 17 19 18 17 20 24 29 35 41
64 70 72 73 72 69 69 69 71 72 70 67 61 55 50 45 42 42 40 38 34 32 30 28 29 26 25 21 18 16 14 14 16 16 17 19 23 23 24 23 23 29 32 37
67 69 72 71 68 68 69 69 71 71 68 65 58 52 47 44 43 41 41 39 38 37 34 32 31 29 29 27 22 19 18 18 17 20 21 23 25 26 27 29 29 28 28 31
68 69 70 71 68 68 68 70 71 71 69 60 54 50 48 45 42 40 40 40 38 38 38 37 36 35 35 31 28 25 21 23 23 22 25 29 28 29 32 31 32 34 34 33
68 70 71 70 67 68 68 71 72 71 67 57 52 49 46 43 42 41 40 40 41 39 39 40 40 40 41 39 34 31 29 28 27 27 28 30 33 34 34 34 35 35 35 34
67 70 72 68 66 67 68 71 72 70 63 56 52 48 45 44 43 43 43 43 43 43 43 43 44 43 45 44 40 36 33 31 32 31 32 32 34 33 37 38 37 34 36 38
68 70 70 65 66 67 69 71 72 68 63 57 52 51 50 50 49 48 49 49 48 49 50 49 46 46 46 49 45 38 34 32 32 34 35 34 34 34 33 35 38 39 36 36
70 71 68 65 65 67 70 71 71 66 62 58 56 56 56 55 57 55 54 55 53 52 53 51 49 46 45 44 42 36 34 33 33 34 35 34 32 32 31 32 34 36 38 36
72 72 67 66 65 68 70 71 69 67 62 60 59 59 60 60 60 60 59 58 58 57 55 53 49 45 40 38 35 33 31 31 31 30 31 31 30 29 28 28 30 31 32 34
74 72 68 67 66 69 71 71 71 67 63 62 63 63 63 64 64 65 65 63 63 63 59 54 48 41 36 31 27 25 24 24 26 26 27 28 27 27 26 26 27 28 28 28
73 69 66 66 69 71 73 73 70 68 65 66 65 68 66 68 66 67 67 66 64 63 57 49 39 31 26 23 21 20 22 23 24 25 27 27 28 27 25 25 25 25 25 25
67 67 65 68 71 73 74 72 70 69 68 69 69 69 69 68 68 68 66 64 61 57 49 37 31 26 22 20 21 24 27 26 26 29 29 28 28 27 26 25 25 24 23 22
64 64 66 70 73 74 73 70 70 70 70 70 71 72 72 71 70 68 65 60 55 44 37 31 27 24 22 23 26 23 20 19 19 20 22 24 25 26 26 25 25 24 22 20
62 65 69 72 73 71 70 69 69 70 71 72 73 73 74 73 70 66 61 53 44 40 32 28 26 26 26 25 25 23 22 22 21 19 16 15 17 22 24 25 25 25 23 21
63 66 69 70 71 70 69 70 71 72 73 75 76 76 74 72 67 61 54 47 41 36 28 25 26 26 27 28 28 27 28 28 27 27 27 26 23 20 20 23 25 26 25 24
63 67 68 69 69 68 69 70 71 74 75 76 77 77 74 68 61 56 50 42 35 32 31 32 34 36 35 34 34 34 34 36 38 38 38 37 36 34 31 26 24 25 26 26
63 66 68 68 68 68 69 70 72 74 76 78 78 75 70 63 57 50 45 42 39 35 34 35 35 37 38 39 39 39 37 36 34 32 30 28 28 30 33 32 31 28 26 25
63 66 66 66 66 67 69 71 73 75 76 76 75 71 64 60 54 48 45 42 40 37 35 34 32 32 32 32 32 30 28 25 23 22 22 23 24 25 27 31 33 35 33 29
Wind_Direction
343 345 345 345 347 346 351 353 352 353 356 355 351 352 354 356 358 359 357 360 2 2 6 8 13 15 10 10 6 30 26 215 192 193 180 200 211 214 204 198 192 186 199 203
342 344 345 346 346 346 349 353 353 351 356 355 355 352 353 351 353 358 357 358 1 3 2 2 8 14 15 19 2 3 27 102 192 190 183 172 200 215 218 198 182 208 207 203
343 344 345 346 345 346 349 351 354 351 355 353 351 351 349 352 351 356 356 355 359 3 7 358 0 1 4 15 20 5 19 46 163 192 200 203 198 217 215 212 197 183 218 221
343 343 345 344 345 346 348 352 356 353 355 354 350 349 349 349 353 352 358 357 355 2 3 9 6 9 357 358 16 12 5 45 72 205 219 212 218 214 214 215 212 193 198 202
342 342 343 343 345 345 348 351 355 355 350 352 351 349 348 348 349 351 356 358 357 2 359 359 6 10 15 355 8 11 347 3 50 124 225 231 211 212 209 207 205 208 202 199
342 343 344 343 345 345 347 351 354 355 349 351 351 349 347 346 349 350 354 356 359 0 358 2 358 358 9 6 358 8 9 3 346 41 111 206 239 211 196 201 218 215 223 209
341 343 343 344 345 347 346 349 352 354 349 351 350 349 346 345 346 350 351 354 355 358 1 360 3 352 350 352 6 347 18 339 272 253 259 198 210 220 225 201 204 212 222 230
340 342 343 345 344 347 347 347 349 351 350 349 350 349 348 345 346 347 348 350 354 354 359 356 358 355 350 350 358 13 6 336 266 244 249 236 227 200 208 226 217 208 214 211
339 341 342 344 345 345 347 345 348 348 348 348 349 350 347 349 347 343 347 346 347 350 351 351 354 -0 4 356 335 343 318 268 267 250 242 244 233 234 221 231 231 220 226 223
338 340 341 342 344 343 346 344 345 347 347 346 348 348 348 349 348 345 346 346 343 343 346 346 346 350 355 355 351 321 310 307 271 261 260 249 244 243 237 229 226 228 238 237
337 339 341 341 343 342 344 343 344 345 346 346 347 347 348 349 347 345 343 342 342 342 339 340 341 342 341 345 341 336 317 279 280 277 258 255 250 246 245 244 229 226 224 229
336 338 339 340 340 342 343 342 344 344 345 344 346 347 347 345 344 341 339 340 338 337 336 335 333 332 330 328 329 325 314 305 284 265 263 259 252 251 244 242 242 239 233 230
336 337 339 339 339 340 340 342 343 343 344 345 345 345 343 342 341 337 336 335 332 330 329 327 324 323 321 319 317 315 307 299 288 279 265 254 255 254 250 246 244 243 242 240
334 336 337 337 337 338 339 340 341 342 343 346 345 342 342 338 338 334 331 328 326 323 320 320 318 316 313 311 311 308 305 296 286 279 273 268 259 253 254 252 247 245 246 245
334 336 336 335 337 336 338 339 340 342 344 345 341 341 338 336 333 329 327 323 321 318 316 313 312 311 307 306 305 305 298 292 284 277 273 270 267 262 258 254 253 250 247 246
335 334 334 334 335 336 337 338 339 342 343 342 341 339 337 335 330 328 327 323 320 318 315 312 310 306 303 300 300 299 290 282 277 274 270 269 267 266 265 262 258 255 252 249
332 332 333 333 335 335 336 337 339 341 341 339 339 338 335 332 331 328 325 322 319 316 313 312 309 306 301 298 296 292 284 277 270 267 267 267 266 265 265 265 264 260 256 253
331 331 331 333 334 334 335 336 337 338 338 338 337 336 334 332 327 326 322 319 317 314 314 312 310 308 301 297 291 285 278 273 269 264 262 263 265 265 264 265 266 266 262 257
331 331 330 331 332 332 334 334 335 336 338 337 337 334 331 329 327 323 321 319 317 315 315 316 313 309 302 296 287 279 272 268 266 262 260 259 258 262 264 263 265 266 266 262
330 328 328 331 331 332 333 333 336 337 337 337 335 332 329 327 325 322 320 319 318 315 318 314 311 306 299 288 279 275 272 270 263 261 260 261 259 258 260 260 260 262 264 264
327 328 329 329 331 332 333 337 338 336 337 336 334 331 328 327 324 322 321 318 315 315 317 312 310 303 292 281 277 277 279 275 263 261 265 266 259 255 254 251 249 251 254 256
327 328 329 329 330 334 336 337 337 335 335 334 331 330 329 327 324 323 321 320 318 318 314 310 305 297 293 291 294 292 287 279 274 271 269 262 256 249 247 250 246 244 245 250
326 328 330 331 333 336 337 336 335 334 333 333 332 330 329 328 325 324 322 321 322 317 314 308 303 298 294 295 294 290 283 276 269 258 251 258 257 250 245 245 244 243 244 247
327 328 330 333 334 335 335 334 334 333 334 334 333 331 330 329 327 325 323 325 322 317 307 299 294 292 289 287 284 282 280 276 268 261 253 253 255 258 255 245 243 242 241 242
327 330 330 333 334 335 333 333 333 333 334 335 333 331 330 330 328 328 325 323 319 308 298 290 285 284 283 282 281 278 275 273 272 270 267 263 260 260 260 252 243 239 240 239
327 328 330 332 333 333 333 333 333 334 334 334 333 332 331 332 330 327 325 323 319 311 301 294 286 280 279 279 280 280 280 280 279 276 271 266 259 254 251 247 241 240 237 236
328 329 330 331 332 331 332 331 333 335 336 334 334 334 334 332 331 330 328 323 318 313 307 301 296 290 286 285 286 287 287 284 278 273 266 260 254 250 247 242 236 239 241 238
Height
5696 5684 5672 5660 5648 5635 5620 5605 5587 5574 5561 5547 5532 5520 5509 5497 5485 5475 5466 5456 5448 5438 5431 5427 5421 5414 5409 5406 5403 5400 5397 5396 5398 5400 5404 5410 5415 5421 5430 5441 5451 5458 5467 5478
5689 5678 5667 5656 5642 5627 5615 5601 5586 5566 5556 5548 5538 5521 5511 5497 5488 5477 5468 5458 5448 5441 5432 5428 5424 5419 5413 5410 5406 5403 5401 5397 5400 5405 5409 5411 5415 5419 5424 5442 5448 5454 5462 5472
5683 5672 5661 5650 5636 5621 5608 5596 5583 5565 5551 5538 5531 5525 5513 5503 5486 5476 5466 5458 5450 5443 5437 5430 5425 5422 5418 5411 5409 5405 5404 5401 5403 5407 5410 5413 5416 5417 5425 5439 5444 5450 5456 5465
5678 5666 5655 5643 5630 5615 5602 5591 5576 5558 5550 5542 5529 5516 5506 5497 5492 5478 5468 5460 5450 5442 5436 5433 5427 5423 5419 5415 5410 5408 5408 5407 5406 5408 5410 5413 5416 5419 5423 5430 5440 5445 5453 5460
5672 5660 5648 5637 5624 5611 5597 5585 5571 5559 5545 5536 5523 5512 5501 5493 5484 5475 5468 5459 5451 5442 5435 5429 5426 5423 5420 5418 5413 5410 5408 5408 5409 5409 5411 5414 5417 5420 5423 5427 5436 5443 5447 5453
5665 5654 5643 5630 5618 5605 5591 5580 5567 5554 5540 5532 5519 5505 5494 5486 5479 5469 5462 5456 5450 5444 5439 5432 5425 5421 5418 5416 5414 5411 5409 5408 5409 5409 5411 5412 5416 5417 5422 5425 5430 5437 5441 5448
5658 5647 5635 5623 5611 5598 5583 5573 5562 5551 5540 5527 5517 5504 5492 5483 5475 5468 5460 5454 5449 5444 5436 5429 5424 5420 5418 5416 5413 5411 5408 5408 5409 5409 5410 5412 5413 5414 5418 5422 5425 5431 5436 5441
5652 5641 5629 5617 5605 5593 5580 5566 5556 5546 5536 5523 5514 5502 5490 5479 5469 5467 5458 5453 5447 5442 5436 5434 5430 5424 5417 5414 5412 5410 5408 5407 5407 5408 5409 5411 5410 5412 5414 5417 5421 5424 5429 5434
5647 5636 5623 5612 5600 5588 5576 5562 5552 5540 5528 5516 5506 5497 5487 5480 5472 5465 5459 5450 5445 5440 5435 5431 5426 5421 5417 5414 5409 5408 5407 5406 5406 5405 5406 5407 5409 5409 5409 5410 5414 5417 5421 5424
5642 5631 5619 5607 5595 5583 5572 5557 5547 5536 5524 5511 5502 5493 5484 5475 5468 5463 5455 5450 5445 5439 5433 5429 5425 5420 5416 5412 5409 5406 5404 5403 5402 5401 5401 5402 5403 5404 5406 5409 5414 5412 5414 5417
5636 5626 5615 5603 5591 5579 5567 5554 5541 5530 5520 5507 5495 5487 5479 5471 5463 5457 5452 5445 5440 5435 5430 5425 5420 5417 5413 5410 5406 5403 5401 5399 5397 5396 5396 5397 5395 5397 5399 5401 5403 5405 5407 5409
5631 5620 5608 5596 5585 5573 5562 5549 5536 5524 5513 5499 5490 5482 5474 5467 5460 5453 5446 5439 5432 5428 5423 5418 5415 5411 5407 5404 5402 5399 5396 5393 5392 5391 5389 5387 5387 5388 5390 5391 5392 5395 5398 5401
5624 5613 5601 5589 5578 5567 5555 5544 5531 5520 5510 5496 5486 5476 5469 5460 5455 5448 5442 5435 5428 5422 5416 5412 5408 5404 5400 5397 5395 5392 5389 5385 5383 5382 5379 5378 5378 5378 5378 5380 5382 5384 5386 5388
5617 5606 5594 5582 5570 5560 5548 5536 5523 5512 5501 5492 5483 5470 5463 5455 5448 5441 5435 5429 5422 5416 5411 5404 5399 5394 5389 5386 5385 5382 5379 5376 5372 5371 5369 5367 5366 5367 5367 5368 5370 5372 5374 5376
5607 5597 5586 5575 5564 5552 5541 5529 5517 5505 5495 5484 5473 5466 5457 5449 5442 5435 5428 5421 5415 5408 5402 5396 5389 5384 5377 5372 5371 5370 5366 5363 5360 5358 5356 5355 5354 5354 5354 5355 5356 5358 5361 5363
5599 5588 5577 5567 5556 5544 5533 5522 5510 5497 5487 5478 5469 5457 5447 5441 5433 5426 5418 5410 5403 5396 5388 5382 5377 5371 5365 5356 5356 5356 5352 5349 5346 5344 5343 5342 5341 5341 5341 5341 5342 5344 5347 5350
5591 5580 5569 5559 5547 5536 5525 5514 5500 5489 5479 5470 5460 5452 5442 5432 5423 5414 5407 5398 5390 5383 5375 5369 5361 5356 5351 5343 5339 5338 5335 5333 5332 5330 5330 5330 5329 5329 5330 5330 5330 5331 5333 5336
5581 5570 5560 5550 5539 5527 5516 5504 5493 5481 5471 5460 5450 5441 5431 5421 5412 5403 5393 5384 5376 5368 5360 5353 5346 5340 5333 5328 5324 5322 5320 5318 5318 5318 5318 5318 5318 5318 5319 5320 5320 5320 5322 5324
5572 5562 5552 5541 5531 5520 5509 5496 5484 5472 5464 5449 5439 5428 5418 5407 5398 5387 5376 5368 5357 5348 5342 5335 5329 5322 5317 5313 5310 5308 5308 5307 5306 5307 5307 5308 5309 5310 5310 5310 5311 5311 5312 5314
5562 5552 5541 5530 5520 5508 5498 5483 5472 5459 5450 5438 5428 5416 5405 5394 5382 5370 5360 5348 5339 5328 5325 5317 5312 5307 5305 5302 5300 5299 5298 5298 5297 5297 5298 5299 5300 5301 5302 5302 5303 5303 5304 5305
5552 5541 5531 5520 5509 5499 5484 5470 5458 5446 5436 5425 5414 5403 5391 5379 5367 5355 5344 5332 5322 5313 5309 5304 5300 5297 5295 5293 5291 5290 5288 5288 5288 5287 5288 5289 5290 5291 5292 5294 5295 5296 5297 5298
5542 5531 5520 5509 5497 5484 5472 5458 5446 5432 5421 5410 5397 5388 5376 5363 5350 5340 5327 5319 5307 5301 5295 5292 5289 5287 5286 5284 5283 5281 5280 5279 5279 5279 5278 5279 5280 5282 5283 5285 5286 5288 5290 5291
5532 5521 5510 5497 5486 5472 5459 5449 5438 5425 5411 5400 5389 5376 5359 5345 5334 5322 5312 5303 5295 5289 5286 5282 5280 5278 5276 5275 5274 5273 5273 5272 5272 5271 5271 5271 5271 5272 5274 5276 5278 5280 5282 5283
5520 5510 5500 5489 5473 5461 5449 5437 5424 5412 5399 5386 5371 5357 5344 5330 5318 5307 5297 5290 5284 5278 5276 5274 5271 5269 5267 5266 5266 5265 5264 5263 5263 5262 5262 5263 5263 5264 5265 5267 5269 5271 5273 5276
5512 5501 5489 5478 5465 5452 5440 5428 5416 5401 5387 5373 5359 5345 5332 5319 5307 5295 5285 5280 5274 5270 5266 5264 5261 5258 5256 5254 5253 5253 5252 5251 5250 5250 5250 5252 5252 5254 5256 5258 5260 5262 5265 5267
5504 5494 5481 5470 5459 5446 5432 5418 5405 5390 5376 5361 5347 5333 5317 5306 5295 5287 5278 5271 5264 5259 5255 5251 5248 5245 5242 5241 5239 5239 5238 5238 5237 5237 5237 5238 5239 5241 5243 5247 5250 5253 5256 5258
5493 5484 5474 5462 5449 5438 5426 5412 5397 5381 5367 5352 5336 5321 5308 5295 5285 5275 5268 5261 5254 5248 5242 5238 5234 5232 5230 5228 5227 5226 5226 5225 5225 5225 5226 5226 5228 5230 5232 5234 5238 5242 5246 5249